Probability
19 10 23 23 23 19 13 13 10 0 0 0 0 0 0 0 3 3 19 65 77 81 71 68 65 68 68 61 52 35 42 45 48 45 45 29 39 39 32 29 35 29 32
16 16 6 19 13 13 16 16 10 6 0 0 3 3 0 0 0 3 10 45 74 84 81 74 58 68 65 61 55 52 55 42 48 52 45 32 26 39 26 32 32 29 26
23 10 10 16 10 3 6 6 6 0 0 0 0 0 0 0 3 3 10 10 26 71 77 81 74 74 65 58 52 45 55 58 58 45 42 42 39 29 29 35 32 29 26
13 13 13 16 13 13 6 6 6 3 3 0 0 0 3 0 0 3 3 0 6 10 48 68 74 71 65 68 58 45 42 52 48 45 35 32 35 26 19 29 32 29 23
23 13 10 13 16 16 10 6 6 3 3 0 3 3 3 3 6 6 3 3 3 3 6 32 77 74 58 58 55 58 55 45 52 39 32 29 26 26 26 19 13 23 16
29 16 6 16 16 13 13 10 6 6 3 0 3 3 0 0 0 0 0 0 3 3 6 10 19 39 61 71 68 58 65 68 48 42 35 32 23 29 19 16 10 13 16
26 19 23 19 16 13 6 3 6 3 3 3 0 0 0 0 0 0 0 0 0 0 3 6 6 3 10 48 65 68 68 68 61 45 35 29 19 23 19 16 10 10 10
29 39 23 19 19 16 10 6 3 3 3 3 0 0 0 0 0 0 0 0 0 0 0 0 3 3 3 6 6 42 58 61 65 61 45 35 29 19 16 13 10 6 6
35 39 26 19 16 13 13 13 13 6 6 3 3 0 0 0 0 0 0 0 0 0 0 0 3 3 0 0 3 6 39 45 61 58 61 42 32 23 10 10 10 10 10
39 39 35 32 19 19 16 13 13 13 6 3 3 3 0 0 0 0 0 0 0 0 0 3 3 3 3 0 0 0 6 13 42 52 65 58 42 26 23 16 13 13 13
42 35 39 29 26 23 19 16 10 10 10 6 6 3 3 0 0 0 0 0 0 0 0 3 6 3 3 3 3 0 3 6 6 26 55 55 55 42 26 26 19 19 19
35 39 39 29 23 19 16 13 10 10 13 13 13 3 0 3 0 0 0 0 0 0 0 0 3 3 0 0 3 3 3 3 3 3 3 23 42 48 45 35 26 26 23
29 29 29 23 23 23 23 16 13 16 16 16 16 13 13 3 0 0 0 0 0 0 0 0 0 0 3 0 0 3 3 3 3 3 3 3 3 13 26 32 29 23 19
29 23 29 23 23 23 23 19 16 19 16 16 19 13 10 6 6 0 0 0 0 0 0 0 0 0 0 0 0 0 3 3 3 0 0 0 3 3 3 3 6 6 6
29 26 29 23 23 19 16 19 16 13 19 19 16 16 13 13 6 6 0 0 0 0 0 0 0 0 0 0 0 0 0 0 3 0 0 0 0 0 3 3 3 3 3
29 26 16 19 19 19 16 13 13 16 16 10 10 6 6 6 3 6 3 0 0 0 0 0 0 0 0 0 0 0 0 0 0 0 0 0 0 0 0 0 0 0 0
23 23 23 19 19 16 10 10 13 13 10 10 6 10 13 6 10 10 6 0 0 0 0 0 0 0 0 0 0 0 0 0 0 0 0 0 0 0 0 0 0 0 0
23 23 19 19 19 16 13 10 10 6 6 10 6 6 10 10 6 10 6 0 0 0 0 0 0 0 0 0 0 0 0 0 0 0 0 0 0 0 0 0 0 0 0
16 16 16 13 13 13 13 13 10 6 10 6 10 10 10 6 6 6 3 0 0 0 0 0 0 0 0 0 0 0 0 0 0 0 0 0 0 0 0 0 0 0 0
16 16 13 13 10 6 6 10 13 10 10 6 3 3 3 3 3 0 0 0 0 0 0 0 0 0 0 0 0 0 0 0 0 0 0 0 0 0 0 0 0 0 0
16 13 10 10 10 10 6 6 6 3 3 0 0 0 0 0 0 0 0 0 0 0 0 0 0 0 0 0 0 0 0 0 0 0 0 0 0 0 0 0 0 0 0
13 10 10 10 3 3 3 3 0 0 0 0 0 0 0 0 0 0 0 0 0 0 0 0 0 0 0 0 0 0 0 0 0 0 0 0 0 0 0 0 0 0 0
10 10 6 3 3 3 3 3 0 0 0 0 0 0 0 0 0 0 0 0 0 0 0 0 0 0 0 0 0 0 0 0 0 0 0 0 0 0 0 0 0 0 0
3 3 0 3 3 3 3 3 0 0 0 0 0 0 0 0 0 0 0 0 0 0 0 0 0 0 0 0 0 0 0 0 0 0 0 0 0 0 0 0 0 0 0
3 3 0 0 0 0 0 0 0 0 0 0 0 0 0 0 0 0 0 0 0 0 0 0 0 0 0 0 0 0 0 0 0 0 0 0 0 0 0 0 0 0 0
3 0 0 0 0 0 0 0 0 0 0 0 0 0 0 0 0 0 0 0 0 0 0 0 0 0 0 0 0 0 0 0 0 0 0 0 0 0 0 0 0 0 0
Height
5911 5911 5911 5910 5910 5910 5909 5909 5909 5909 5909 5908 5908 5908 5907 5907 5907 5907 5906 5906 5906 5906 5905 5905 5905 5904 5904 5904 5904 5903 5903 5903 5903 5902 5902 5902 5902 5902 5901 5901 5901 5901 5900
5911 5911 5911 5911 5910 5910 5910 5910 5909 5909 5909 5909 5909 5908 5908 5908 5908 5907 5907 5907 5906 5906 5906 5905 5905 5904 5904 5904 5904 5903 5903 5903 5902 5902 5902 5902 5901 5901 5901 5901 5900 5900 5900
5911 5911 5911 5911 5911 5910 5910 5910 5909 5910 5910 5910 5909 5909 5909 5908 5908 5907 5907 5907 5907 5906 5906 5905 5904 5904 5904 5903 5903 5903 5902 5902 5902 5901 5901 5901 5900 5900 5900 5900 5899 5899 5899
5910 5911 5911 5910 5910 5910 5910 5910 5909 5909 5909 5909 5909 5909 5909 5908 5908 5907 5907 5906 5906 5906 5905 5905 5904 5904 5903 5903 5902 5902 5902 5901 5901 5900 5900 5900 5899 5899 5899 5898 5898 5898 5897
5910 5910 5910 5910 5910 5910 5910 5910 5909 5909 5909 5909 5909 5909 5908 5908 5907 5907 5906 5906 5905 5905 5905 5904 5904 5903 5902 5902 5901 5901 5900 5900 5899 5899 5899 5898 5898 5897 5897 5897 5896 5896 5896
5909 5909 5909 5909 5909 5909 5909 5909 5909 5908 5908 5908 5908 5908 5908 5907 5906 5906 5905 5905 5904 5904 5903 5903 5902 5902 5901 5901 5900 5899 5899 5898 5898 5897 5897 5896 5896 5896 5895 5895 5894 5894 5894
5908 5908 5908 5908 5908 5908 5908 5908 5907 5907 5907 5907 5907 5907 5907 5906 5905 5905 5904 5903 5902 5902 5902 5901 5900 5900 5900 5899 5898 5897 5897 5896 5896 5895 5895 5894 5894 5893 5893 5892 5892 5891 5891
5907 5907 5907 5907 5907 5907 5906 5906 5906 5906 5906 5906 5905 5905 5905 5905 5904 5903 5903 5902 5901 5900 5899 5899 5898 5898 5897 5896 5896 5895 5894 5893 5893 5892 5892 5892 5891 5891 5890 5889 5889 5888 5888
5906 5906 5905 5905 5905 5905 5905 5904 5904 5904 5904 5903 5903 5903 5902 5902 5901 5901 5900 5900 5899 5898 5897 5896 5895 5895 5894 5893 5892 5891 5891 5890 5889 5889 5888 5888 5887 5887 5886 5886 5885 5885 5884
5904 5904 5903 5903 5903 5903 5902 5902 5902 5901 5901 5900 5900 5900 5900 5899 5899 5898 5898 5897 5896 5895 5895 5894 5892 5891 5890 5890 5889 5888 5887 5886 5886 5885 5884 5884 5883 5883 5882 5881 5881 5880 5880
5902 5901 5901 5900 5900 5900 5900 5899 5899 5898 5898 5897 5897 5896 5896 5896 5895 5895 5894 5894 5893 5892 5891 5890 5889 5888 5887 5886 5885 5884 5883 5882 5882 5881 5880 5879 5879 5878 5877 5876 5875 5875 5874
5899 5899 5898 5898 5897 5897 5896 5895 5895 5895 5894 5894 5893 5893 5892 5892 5891 5891 5890 5889 5889 5888 5887 5886 5885 5884 5883 5882 5881 5879 5878 5877 5876 5876 5875 5874 5873 5873 5872 5871 5870 5869 5868
5897 5896 5896 5895 5894 5893 5893 5892 5891 5890 5890 5890 5890 5889 5889 5888 5887 5887 5886 5885 5884 5884 5883 5882 5881 5879 5878 5877 5876 5874 5873 5872 5871 5870 5869 5868 5867 5866 5865 5865 5864 5863 5862
5894 5893 5892 5892 5891 5890 5889 5888 5886 5885 5886 5886 5886 5885 5885 5884 5883 5882 5882 5881 5880 5879 5878 5877 5876 5874 5873 5872 5870 5869 5867 5866 5865 5864 5863 5862 5861 5859 5858 5858 5857 5856 5855
5891 5891 5889 5888 5887 5886 5885 5885 5884 5883 5883 5883 5882 5882 5881 5880 5879 5878 5877 5876 5875 5874 5873 5872 5870 5869 5868 5866 5865 5863 5862 5860 5858 5857 5855 5855 5853 5852 5851 5850 5849 5848 5847
5889 5888 5886 5885 5884 5883 5882 5881 5880 5880 5880 5879 5879 5878 5877 5876 5875 5874 5872 5871 5870 5869 5868 5866 5865 5864 5862 5860 5859 5857 5855 5854 5851 5850 5849 5847 5846 5845 5844 5842 5841 5840 5839
5886 5885 5883 5882 5881 5879 5878 5877 5877 5876 5876 5875 5875 5874 5873 5872 5871 5869 5868 5867 5865 5864 5863 5861 5859 5858 5856 5855 5853 5851 5850 5847 5845 5843 5841 5840 5839 5837 5835 5834 5833 5832 5830
5884 5882 5880 5879 5877 5876 5875 5874 5873 5872 5872 5871 5870 5869 5868 5867 5866 5865 5863 5862 5860 5859 5858 5856 5854 5853 5851 5849 5847 5845 5843 5841 5839 5837 5834 5833 5831 5829 5827 5826 5825 5823 5821
5881 5879 5877 5876 5874 5873 5871 5870 5869 5868 5868 5867 5866 5865 5864 5863 5862 5860 5859 5857 5856 5854 5852 5851 5849 5847 5845 5843 5841 5838 5836 5834 5832 5829 5827 5825 5823 5821 5819 5817 5815 5814 5812
5878 5877 5875 5873 5871 5869 5867 5866 5865 5864 5864 5863 5862 5861 5859 5858 5857 5855 5854 5852 5850 5849 5847 5845 5843 5841 5839 5836 5834 5832 5829 5827 5824 5822 5819 5817 5815 5812 5811 5809 5807 5805 5802
5876 5874 5872 5870 5868 5866 5864 5863 5862 5861 5860 5859 5857 5856 5855 5854 5852 5850 5849 5847 5845 5843 5841 5839 5837 5835 5832 5830 5827 5825 5822 5819 5816 5814 5812 5809 5807 5804 5802 5800 5797 5795 5792
5874 5872 5870 5868 5866 5864 5862 5860 5859 5858 5856 5855 5853 5852 5850 5849 5847 5845 5843 5841 5839 5837 5835 5832 5830 5828 5826 5823 5820 5817 5815 5812 5809 5806 5803 5801 5798 5795 5792 5790 5787 5785 5782
5871 5870 5868 5866 5864 5862 5860 5858 5856 5854 5853 5851 5849 5848 5846 5844 5842 5840 5837 5835 5833 5830 5828 5826 5824 5821 5819 5816 5813 5810 5807 5804 5801 5798 5795 5792 5789 5786 5783 5780 5777 5774 5772
5868 5867 5865 5863 5861 5859 5857 5855 5853 5851 5849 5847 5845 5843 5841 5839 5837 5834 5832 5829 5827 5824 5822 5819 5817 5814 5811 5808 5805 5802 5799 5795 5792 5789 5786 5782 5779 5776 5772 5769 5766 5763 5760
5865 5863 5862 5860 5859 5857 5854 5852 5850 5847 5845 5843 5841 5839 5836 5834 5831 5829 5826 5824 5821 5818 5815 5812 5809 5806 5803 5800 5797 5793 5790 5786 5782 5779 5776 5772 5769 5766 5762 5759 5756 5753 5750
5861 5860 5859 5857 5855 5853 5851 5849 5846 5844 5841 5839 5836 5834 5831 5829 5826 5823 5820 5818 5815 5811 5808 5805 5802 5798 5795 5791 5787 5784 5780 5776 5772 5769 5765 5762 5758 5755 5752 5748 5745 5741 5738
Wind_Speed
2 2 3 3 3 3 3 3 3 4 4 4 4 4 3 3 3 2 3 3 3 3 2 2 1 1 1 1 1 1 1 2 1 2 2 2 2 2 2 2 3 3 3
1 1 2 2 2 3 3 2 2 2 2 2 2 2 2 2 2 1 1 1 1 1 1 1 1 0 1 1 1 1 2 2 3 3 3 3 3 4 4 4 4 4 4
1 1 1 1 2 2 2 2 1 1 1 1 1 1 1 1 1 1 0 1 1 1 1 1 1 1 2 2 2 3 3 3 4 4 5 5 5 5 5 5 5 5 5
1 1 1 1 1 0 0 1 1 0 0 1 1 0 0 1 1 1 1 2 2 3 2 2 2 3 3 3 4 4 4 4 5 5 6 6 6 6 7 7 7 7 7
1 1 1 1 1 1 1 1 1 2 2 2 2 2 2 2 2 3 3 3 4 4 4 4 4 4 4 5 5 6 6 6 7 7 7 7 8 8 8 8 8 8 8
2 2 2 2 2 2 2 2 3 3 3 3 3 4 4 4 4 4 5 5 6 6 6 6 6 6 7 7 7 8 8 8 9 9 9 9 9 9 9 9 10 10 10
3 3 3 3 3 3 3 3 3 4 5 5 5 6 6 6 6 6 6 7 7 7 8 8 8 8 9 9 9 10 10 10 10 10 10 10 10 10 11 11 12 12 12
4 4 5 5 4 4 4 4 5 6 6 6 7 7 8 8 8 8 8 9 9 9 9 10 10 11 12 12 12 12 12 13 13 12 13 13 13 13 13 13 13 14 14
6 6 7 7 6 7 7 7 7 7 8 8 9 9 9 9 10 10 10 10 11 11 12 13 13 13 13 14 14 14 15 15 14 15 15 15 15 15 15 15 15 15 16
7 8 8 8 8 8 9 9 9 9 9 10 10 10 11 11 11 12 12 12 12 12 13 13 14 14 14 15 16 16 16 16 16 17 17 17 17 17 18 18 18 18 18
7 8 9 9 10 10 10 11 11 11 11 11 11 12 12 12 13 13 13 13 14 14 14 14 14 15 16 16 17 18 19 19 18 18 19 19 20 20 20 20 21 21 21
9 9 10 10 11 12 13 13 14 13 12 12 12 12 13 13 14 14 15 16 16 16 16 16 16 17 17 18 19 19 20 20 20 20 21 21 21 22 23 23 23 24 24
10 10 11 11 12 13 13 14 15 14 13 13 13 13 13 14 15 15 16 16 17 17 18 18 19 19 19 19 20 21 22 22 22 22 23 23 23 23 23 24 25 25 25
10 11 11 12 12 13 14 14 13 13 14 14 14 14 15 15 15 15 16 17 18 19 19 19 20 20 20 21 22 23 23 24 24 24 25 26 26 26 27 27 27 27 27
10 11 12 12 12 13 13 14 13 13 14 14 14 15 15 15 16 16 16 17 18 19 19 20 20 20 20 21 22 22 23 24 25 26 27 27 28 28 29 30 30 30 30
9 10 12 12 12 13 13 13 13 14 14 14 15 15 15 16 16 17 17 18 18 17 18 19 19 20 21 22 23 23 23 23 25 25 25 26 27 29 30 30 31 32 32
10 10 11 12 12 12 12 13 12 12 13 14 15 15 16 17 17 18 17 17 18 18 18 19 20 20 21 22 23 23 23 24 24 26 26 27 28 29 29 30 30 31 33
10 11 11 11 11 11 12 12 12 12 13 14 14 15 15 16 16 16 16 16 17 18 18 19 21 21 22 23 24 24 24 24 25 25 26 27 28 29 30 31 31 32 33
10 10 11 11 11 11 12 11 11 12 13 13 14 15 16 16 17 17 17 17 18 19 20 21 22 22 23 24 25 25 25 26 27 26 27 28 28 30 30 32 33 34 34
10 10 11 11 11 11 11 11 11 12 13 14 15 15 16 17 17 17 18 19 20 21 22 22 23 24 25 25 25 25 26 27 27 27 28 29 30 30 31 32 33 34 35
10 10 10 11 11 11 11 11 11 12 13 14 15 16 16 17 18 19 21 21 21 22 23 24 24 24 25 25 25 26 27 28 28 29 30 30 31 32 33 33 34 34 34
10 10 11 11 11 11 11 12 12 13 14 14 15 16 17 18 19 21 22 22 22 23 24 24 24 25 25 26 27 28 28 28 29 30 30 31 33 34 35 34 35 35 35
10 10 11 11 12 12 12 12 13 13 14 15 16 17 18 18 20 21 21 22 24 23 24 24 25 26 26 27 28 29 29 29 30 31 31 32 33 34 36 36 37 37 37
11 11 12 12 12 12 13 14 15 15 15 16 17 18 18 19 20 21 21 22 23 24 25 25 26 26 27 29 29 30 30 31 32 33 33 34 34 35 36 37 37 37 37
12 12 12 13 13 14 15 16 16 16 15 16 17 18 19 20 20 21 22 23 24 25 25 26 27 28 29 30 31 32 32 33 34 35 34 35 35 36 36 37 37 37 37
13 13 13 14 15 16 16 17 17 17 18 19 20 20 20 21 21 22 23 24 25 26 27 27 28 29 31 32 33 33 34 35 35 35 35 36 36 36 36 36 37 37 37
Wind_Direction
38 59 52 48 53 57 64 63 61 59 60 61 67 73 77 77 85 86 94 89 90 82 74 74 83 121 147 153 158 186 205 209 214 218 222 233 233 235 235 241 246 247 250
49 114 84 62 58 56 65 64 68 69 70 58 64 78 75 59 65 74 95 96 100 74 62 61 49 237 220 224 233 236 238 242 247 245 248 253 250 252 252 256 259 256 259
101 109 107 107 70 57 61 61 69 74 73 65 71 94 96 51 24 27 281 277 283 288 294 299 288 273 260 251 245 250 250 251 251 249 251 256 257 256 255 257 259 262 264
111 135 165 170 148 50 32 15 347 331 298 286 321 307 312 327 315 312 287 274 277 276 274 268 272 273 267 262 260 258 258 256 257 257 256 258 259 259 260 261 264 265 266
185 203 196 195 212 245 267 275 263 272 274 275 288 277 273 285 297 304 291 274 271 274 275 268 268 270 268 266 267 264 264 263 264 263 262 262 260 260 261 260 263 265 266
233 232 229 240 260 264 265 267 249 262 273 279 278 274 277 279 280 286 287 278 271 270 275 272 269 271 272 273 272 270 267 265 266 265 264 263 263 261 261 263 265 267 267
249 252 251 252 260 268 278 283 264 264 271 271 272 273 278 279 277 277 274 278 281 278 272 268 269 272 273 276 275 272 270 267 268 266 265 263 262 263 265 266 267 268 268
253 258 264 262 265 269 277 285 277 269 269 267 270 272 276 277 279 276 275 277 279 281 275 271 273 273 272 273 274 271 271 271 268 266 265 265 265 265 266 268 270 270 269
260 262 266 271 268 271 276 280 278 272 267 267 268 270 271 270 273 276 276 277 276 278 278 277 274 273 273 275 274 274 271 270 270 268 266 265 266 265 265 267 269 271 271
266 269 273 276 276 274 273 275 276 274 272 273 271 270 270 272 273 275 276 274 275 278 278 278 277 280 277 277 279 273 272 272 273 269 267 267 268 266 267 266 267 268 268
274 279 278 276 274 272 272 273 275 276 276 276 274 272 272 275 274 275 275 274 276 277 278 278 277 277 276 277 278 277 273 273 274 272 269 268 268 268 268 268 267 267 268
282 285 283 280 276 274 274 274 277 277 274 273 273 273 275 278 277 275 276 275 276 277 276 277 277 276 277 275 276 277 275 273 273 273 270 269 269 269 269 269 268 269 270
284 289 287 281 277 277 277 276 279 273 270 271 274 275 276 278 279 277 276 275 275 275 276 277 278 278 279 278 277 277 276 274 273 272 269 269 269 270 271 271 271 271 271
284 287 290 283 278 278 276 277 278 273 271 272 275 276 277 279 278 279 278 276 276 277 276 277 278 279 279 279 278 278 277 275 274 270 269 269 267 268 270 270 270 271 271
289 289 290 289 285 280 275 275 276 275 274 277 278 277 279 280 280 281 280 278 278 279 280 281 282 281 280 282 282 281 282 280 275 274 272 270 269 270 270 270 270 271 271
301 296 293 290 290 284 277 275 275 274 274 277 278 279 281 281 280 283 282 280 281 283 284 285 284 286 286 284 284 285 286 286 281 276 275 273 272 273 274 273 272 272 271
305 308 300 293 291 287 283 280 278 277 277 278 279 280 281 282 282 284 285 284 282 285 285 284 287 288 291 290 289 287 287 286 286 282 277 276 276 276 275 275 277 276 275
304 309 308 301 295 291 288 289 282 280 282 284 284 282 282 283 284 286 289 288 287 288 287 286 286 288 289 289 289 288 288 288 287 284 280 278 278 278 277 278 278 277 276
308 309 310 308 303 297 296 295 291 289 288 288 288 284 283 284 284 287 287 289 290 289 288 289 288 289 291 292 290 288 289 289 288 285 284 282 280 279 278 276 277 277 277
313 313 314 314 311 305 300 299 294 293 291 290 290 288 285 286 288 288 289 291 292 292 291 292 291 291 292 292 292 291 291 291 289 287 285 284 283 281 280 280 280 279 278
311 314 316 318 318 316 309 302 297 295 296 295 293 291 290 289 289 289 291 292 292 292 292 292 291 291 291 291 292 292 292 291 289 287 286 284 283 282 281 281 280 280 280
309 313 315 317 318 319 319 313 305 299 297 297 297 297 296 293 291 291 291 291 292 292 293 293 293 292 292 291 292 293 293 291 289 288 287 286 286 285 283 281 280 281 281
311 313 316 316 317 317 317 318 314 308 305 301 299 299 298 296 297 296 294 294 295 295 294 295 293 294 293 293 293 293 292 291 291 290 289 288 286 285 284 283 283 283 282
307 310 314 314 317 318 317 317 314 310 309 308 305 305 304 301 300 300 300 299 300 298 296 296 296 296 296 296 295 295 293 293 293 292 291 289 289 288 286 285 284 284 283
305 308 311 312 315 318 318 317 314 312 312 312 311 308 306 305 305 304 303 302 302 301 301 299 299 298 299 298 297 296 296 295 295 294 292 291 290 288 287 286 285 285 284
302 305 307 309 311 312 313 314 314 314 313 312 311 311 309 306 305 306 305 305 304 303 302 301 301 300 300 300 299 298 297 296 295 294 293 292 291 289 289 288 287 286 285